Theta_e
333 337 337 337 337 334 330 326 326 330 327 323 325 333 331 334 334 336 334 333 332 332 329 326 325 323 323 323 324 322 322 321 319 320 321 320 318 317 319 320 320 318 317
329 328 331 329 328 328 329 331 329 330 333 334 333 333 333 334 333 333 332 333 331 330 328 326 326 324 323 323 322 322 321 321 321 320 319 319 320 322 321 319 315 315 315
324 324 324 325 325 322 323 325 329 328 326 325 326 328 325 327 329 330 331 330 329 329 328 327 325 324 325 324 323 323 323 323 323 322 322 322 321 319 319 318 316 316 316
320 319 318 317 318 318 319 319 320 320 321 321 322 322 321 321 321 321 322 320 320 321 322 324 325 325 326 325 325 324 323 323 322 322 321 321 320 320 320 319 316 313 312
315 315 315 314 314 314 314 314 315 315 316 316 316 316 316 317 317 318 317 316 315 315 314 313 313 314 315 315 316 318 321 323 322 322 321 321 319 319 318 317 313 313 312
314 314 314 314 314 313 313 312 311 311 310 311 311 311 311 312 312 312 312 312 313 311 310 310 310 310 310 310 312 313 314 313 317 319 319 319 319 317 317 314 314 312 312
313 313 313 312 311 310 310 309 309 310 310 310 311 311 312 312 312 311 312 311 310 309 309 310 310 310 310 310 311 311 310 310 310 311 312 314 316 317 317 316 314 314 314
312 312 311 309 308 308 308 308 309 308 308 309 309 309 310 310 310 309 308 307 307 306 305 305 305 306 307 308 308 307 307 308 309 309 309 309 310 314 315 315 316 315 315
310 310 308 308 307 307 307 307 307 308 309 309 309 307 307 307 306 306 304 303 303 302 301 301 302 303 303 303 303 303 304 304 306 306 306 306 307 310 312 314 315 314 312
308 307 307 306 306 306 306 305 304 305 305 304 304 304 304 304 303 302 302 301 300 300 300 300 301 302 303 303 302 302 303 304 305 306 306 306 306 309 311 313 314 311 311
306 306 306 305 304 303 302 301 301 301 300 301 301 301 302 301 301 302 302 301 300 299 298 298 299 300 300 301 302 301 301 301 302 305 305 305 305 308 311 313 314 312 312
305 302 301 300 299 299 298 298 298 298 297 298 298 298 299 300 301 300 300 299 299 299 298 299 299 299 300 300 300 300 300 301 301 302 304 304 305 308 310 311 312 313 313
299 298 297 297 296 296 295 295 294 295 295 296 297 298 299 299 298 298 298 298 299 298 298 298 297 298 298 298 299 299 300 300 301 302 303 304 306 308 310 311 312 312 312
295 294 294 293 294 293 292 293 294 294 295 295 295 297 297 297 298 298 298 297 297 296 296 296 296 296 295 296 297 299 301 304 304 303 304 304 306 307 308 309 309 310 310
291 291 291 291 291 291 292 292 292 293 294 294 295 296 296 297 297 296 295 295 295 295 295 294 294 295 295 296 298 300 303 306 306 306 305 305 306 307 309 310 310 310 311
289 289 289 290 290 291 291 292 293 294 295 296 297 297 296 295 294 294 295 296 296 296 294 294 294 295 295 296 299 302 305 306 306 307 306 306 307 308 309 309 310 312 314
288 289 289 290 290 291 293 293 294 294 295 296 297 295 294 292 292 295 297 297 297 296 294 294 295 295 296 297 299 303 305 306 307 308 309 308 309 310 311 312 314 314 315
289 290 290 291 292 292 293 294 294 294 294 295 293 292 291 291 294 295 297 297 297 297 296 296 296 296 297 298 300 303 306 306 307 309 311 311 313 313 314 314 315 315 316
290 291 291 291 291 291 291 290 291 292 292 292 292 291 290 291 293 294 295 295 297 298 298 298 299 300 300 302 304 305 306 306 309 312 314 314 314 313 314 314 316 316 317
291 292 291 290 290 289 289 289 289 289 290 290 290 289 288 289 290 290 291 292 294 297 298 298 299 300 301 303 306 307 308 310 311 313 315 315 314 314 315 314 316 316 317
292 291 290 291 290 290 289 289 289 288 288 288 288 288 288 288 289 289 289 290 291 293 296 299 300 301 303 305 305 305 307 311 314 314 314 314 314 314 313 314 315 315 315
290 290 289 290 289 289 289 289 289 289 289 289 289 288 288 288 288 288 288 289 290 293 296 299 301 301 303 304 305 305 308 308 309 310 314 313 313 313 314 314 314 315 316
291 290 290 290 290 289 289 289 289 289 289 290 289 288 287 287 287 287 287 288 289 291 296 299 300 302 302 303 304 305 304 304 304 304 308 312 312 313 315 316 315 316 316
291 290 290 289 289 288 288 289 289 289 288 288 289 288 287 287 286 286 286 287 288 290 292 295 298 300 302 302 302 303 304 304 303 304 304 306 310 313 317 318 318 319 317
291 291 291 291 290 290 290 289 289 289 288 287 287 287 287 286 286 286 286 286 287 288 290 291 294 296 299 301 301 302 303 303 303 304 304 305 307 312 311 318 320 320 319
292 291 291 290 290 289 289 288 288 287 287 287 286 286 286 285 286 286 286 286 286 286 287 288 290 292 293 298 300 301 302 303 303 303 304 304 304 307 311 318 320 319 317
Wind_Speed
29 21 19 21 12 10 9 8 9 9 7 5 9 31 28 23 18 18 15 11 11 17 20 24 25 25 27 24 25 26 25 26 12 15 17 23 29 26 24 24 20 23 27
22 24 24 24 24 26 26 23 21 20 12 7 10 18 13 10 9 14 16 17 21 23 25 26 31 32 33 31 30 31 32 33 29 21 24 27 29 18 12 21 35 33 19
20 19 19 18 16 18 19 15 9 9 10 11 9 7 9 7 7 13 20 22 25 30 35 36 36 36 36 36 34 33 35 35 34 30 25 21 19 25 26 26 31 17 13
21 19 18 19 18 16 15 14 12 11 11 9 8 8 9 10 12 14 13 8 7 11 14 17 21 26 30 32 35 34 33 29 27 28 28 25 25 26 26 25 18 13 18
18 15 13 12 13 14 13 13 12 11 10 9 12 12 13 16 17 17 21 25 27 29 31 30 26 24 24 25 23 24 25 29 24 22 21 21 19 18 18 22 15 18 23
15 16 15 13 13 11 11 11 11 12 12 12 13 15 17 18 19 22 24 27 28 27 26 28 30 31 30 30 29 28 22 19 21 20 21 20 23 21 23 23 23 13 2
17 18 18 18 17 18 18 18 18 17 17 17 18 18 18 20 21 23 23 23 21 21 22 24 26 24 25 28 31 32 34 36 28 21 20 19 21 23 25 25 25 20 13
14 17 18 19 20 21 22 21 21 21 21 21 22 22 21 19 15 16 22 23 25 27 28 29 28 28 27 27 28 28 28 30 31 33 29 25 26 26 26 28 28 23 21
14 16 17 19 19 20 20 23 26 25 21 18 16 17 21 22 22 25 28 26 23 23 22 23 23 25 27 29 27 25 26 28 27 28 27 28 33 31 31 28 20 14 8
9 13 15 17 18 20 19 18 20 22 22 22 22 22 22 26 27 21 23 26 21 21 23 22 22 21 20 19 25 21 19 20 22 24 24 27 28 29 30 30 29 16 10
10 12 13 12 14 17 22 22 21 21 23 24 25 25 19 19 23 16 19 21 23 20 20 23 23 24 24 24 24 27 25 27 27 22 23 25 25 26 29 24 34 29 17
14 14 14 16 17 19 22 24 24 24 23 20 20 23 20 16 16 19 25 23 22 22 19 20 22 22 23 26 29 32 32 30 26 23 22 23 24 23 25 28 25 26 29
16 18 18 21 24 23 22 24 23 17 17 16 16 18 17 19 23 21 23 20 17 20 23 24 28 31 29 32 33 34 34 28 21 18 20 22 23 24 24 22 21 23 24
19 22 24 24 20 22 22 18 15 16 16 15 16 16 19 21 21 20 19 23 28 28 26 24 24 26 28 27 28 27 24 25 23 21 22 23 22 22 23 25 24 24 22
20 19 18 17 20 19 16 18 18 19 19 19 19 19 20 20 21 26 27 27 28 28 29 24 18 15 18 21 21 22 23 21 18 21 22 21 21 20 21 20 19 19 17
15 14 17 17 17 18 20 19 19 17 17 18 17 17 14 19 22 25 26 24 22 23 17 13 13 14 16 18 19 20 21 21 21 23 20 21 21 20 20 19 22 21 16
15 16 17 17 19 16 16 15 15 18 15 12 10 17 16 22 24 20 19 21 20 16 12 12 12 13 15 17 19 21 20 23 20 21 20 20 19 20 26 21 14 14 17
14 15 15 15 15 15 15 13 13 13 15 13 19 18 20 24 19 17 18 18 16 14 13 14 13 14 16 18 21 21 24 26 25 21 19 17 11 9 1 10 5 1 10
12 12 13 12 10 11 12 13 14 14 14 15 18 18 24 24 20 20 18 18 15 14 15 14 13 15 17 20 20 25 26 24 22 20 10 9 10 5 7 13 7 1 4
10 9 9 11 12 14 13 13 13 13 13 14 15 18 24 22 20 21 21 20 20 18 16 14 16 18 20 20 22 23 22 20 18 18 3 7 9 3 11 13 12 13 12
15 10 11 12 13 13 13 14 14 14 14 15 16 19 23 18 18 19 20 21 20 22 21 15 18 19 19 19 26 26 22 19 16 8 2 7 4 5 10 5 7 10 3
15 16 14 13 15 16 15 15 14 15 16 17 19 21 23 20 20 21 22 23 24 21 22 20 21 20 21 23 27 26 23 22 24 22 10 7 9 15 15 14 15 13 9
17 16 17 17 17 18 19 20 20 22 21 20 21 22 24 23 23 23 24 25 26 23 19 19 21 21 23 26 22 20 23 24 25 29 26 18 17 17 15 14 14 14 5
18 20 16 18 19 17 18 18 19 21 23 23 23 24 25 25 25 26 26 27 27 24 21 18 19 19 22 23 23 20 20 26 26 26 26 23 21 23 16 18 13 22 14
17 15 19 18 19 19 20 21 21 22 21 23 24 25 26 27 27 29 29 29 28 27 25 22 19 18 18 17 20 19 19 21 20 22 24 26 26 26 28 20 4 11 20
15 19 20 21 23 22 22 22 23 24 24 23 25 26 27 28 28 30 30 32 31 29 29 26 24 20 19 19 18 17 17 19 19 19 21 20 21 27 27 23 10 12 23
Wind_Direction
67 62 56 49 51 45 38 13 5 320 295 314 197 235 223 234 212 207 219 230 234 238 246 251 253 254 255 255 253 255 261 267 273 285 267 277 285 289 291 295 302 307 312
70 72 73 65 62 69 70 71 60 54 41 4 276 220 206 198 204 224 229 227 239 235 239 244 247 251 250 249 251 254 259 264 262 273 273 271 276 275 264 292 297 300 302
51 47 47 51 50 48 61 60 61 54 34 35 59 58 36 1 285 262 260 256 261 262 253 250 252 251 249 250 255 253 255 257 259 262 269 265 254 268 280 285 284 288 306
47 45 36 31 30 33 36 38 33 25 17 3 357 345 335 317 308 317 318 327 315 293 290 285 281 275 266 263 258 252 251 250 253 255 262 267 265 268 269 264 260 282 294
31 20 25 18 6 0 4 7 6 8 8 353 332 321 313 311 312 311 306 313 314 308 304 304 302 296 293 295 300 294 287 272 260 262 261 262 256 247 241 252 251 274 279
16 3 357 358 348 343 353 357 359 356 348 337 326 320 315 311 304 303 306 304 306 309 307 303 297 298 298 295 287 288 295 307 288 270 266 262 261 255 257 242 257 253 260
4 356 357 3 13 8 1 357 357 352 343 338 331 329 323 317 315 310 303 303 307 308 308 305 302 296 292 291 291 288 285 283 280 286 286 276 273 269 272 266 252 245 235
356 354 3 4 358 352 348 347 344 341 334 327 321 317 313 316 322 327 323 319 313 307 302 296 292 291 289 284 287 291 288 283 282 282 281 280 284 289 282 272 256 248 260
356 354 357 353 349 348 344 335 327 327 333 339 339 332 325 320 318 313 314 315 313 307 306 301 292 289 291 294 294 292 289 284 278 275 278 287 282 276 269 264 232 232 237
3 352 347 344 342 340 350 9 351 341 336 333 325 320 313 310 313 318 316 311 307 305 303 300 300 296 296 291 297 297 299 294 287 280 289 294 296 277 268 254 239 209 215
342 335 340 9 13 358 347 346 342 338 327 322 318 313 313 312 313 327 325 315 309 302 296 297 297 297 300 294 287 291 285 290 293 290 288 290 287 275 261 258 245 231 224
20 37 14 359 349 346 337 331 325 325 325 321 317 310 310 315 316 312 313 316 313 304 295 297 291 294 292 290 290 292 293 294 283 273 276 276 275 265 253 246 251 239 240
10 6 356 340 335 330 331 325 326 321 318 308 311 307 314 316 313 315 316 311 304 302 298 294 298 297 298 296 293 293 300 288 275 259 261 265 267 262 252 243 238 235 236
346 338 335 333 330 323 323 322 314 313 308 305 304 305 308 309 309 310 312 315 315 310 305 299 293 291 300 301 296 293 290 285 264 254 256 260 266 265 258 255 258 255 260
337 332 329 324 322 321 316 311 303 302 298 292 293 298 301 304 312 317 313 312 309 306 308 295 287 288 295 295 294 290 290 290 262 262 254 259 259 260 253 251 246 252 250
332 324 319 319 317 313 315 310 315 311 318 314 313 319 329 323 321 319 319 322 321 324 314 286 278 281 287 292 293 295 299 303 296 288 257 253 254 250 252 249 252 240 221
317 317 318 313 314 303 303 307 317 328 340 344 348 336 338 332 332 334 337 336 337 338 321 305 292 289 287 291 293 294 301 301 302 290 273 261 252 261 250 241 220 228 230
323 319 316 319 311 312 314 321 330 338 328 344 350 353 345 344 351 352 351 345 333 335 310 306 300 297 299 301 300 302 305 304 301 293 280 257 237 223 299 199 189 4 170
327 335 341 345 6 9 11 3 359 353 352 346 340 348 351 358 3 4 3 352 327 330 324 322 320 313 305 307 307 305 300 297 302 309 313 164 159 196 273 239 248 253 59
350 353 20 28 31 30 24 15 9 3 357 351 352 351 349 356 354 350 352 351 344 335 335 335 334 327 318 322 330 322 321 323 320 331 333 204 196 338 38 56 81 57 44
31 55 45 35 29 27 29 25 22 20 14 6 357 356 359 355 348 346 344 343 343 339 337 334 341 343 342 352 347 337 336 346 348 354 83 83 89 9 359 23 76 98 103
57 56 50 46 39 35 31 24 16 12 4 2 5 4 5 4 358 354 351 349 348 355 358 353 339 343 347 349 357 4 21 21 20 18 38 37 16 349 354 360 7 13 8
62 59 54 47 44 43 41 34 29 25 15 16 15 11 10 7 3 359 355 354 356 359 2 1 4 355 359 1 0 1 17 22 24 25 27 26 20 10 356 321 317 308 301
69 61 56 58 48 42 36 30 28 28 23 17 13 11 10 8 6 4 2 360 3 8 10 7 358 1 3 357 3 6 357 1 11 16 17 15 3 7 353 304 265 249 252
62 57 54 51 45 39 38 35 29 26 23 17 12 12 11 10 9 9 8 8 8 11 13 14 12 6 5 4 6 6 352 349 1 9 9 4 359 356 354 354 347 181 177
64 66 67 61 54 44 38 32 29 24 19 17 15 13 12 12 11 10 11 12 11 13 15 15 9 10 357 352 349 347 345 342 350 356 359 4 355 351 357 6 45 132 145